Location: Unspecified
(35.6895°N, 139.6917°E)
Time: 02:38:50
(UTC+00:00)

ASTRO H - Pass Details

Date: 05 October 2021
Orbit: 561 x 579 km, 31.0° (Epoch: 22 October)

Event Time Altitude Azimuth Distance (km) Brightness Sun altitude
Rises 09:18:36 0° 232° (SW) 2,734 ? -12.8°
Reaches altitude 10° 09:21:09 10° 219° (SW) 1,838 ? -13.3°
Maximum altitude 09:24:42 26° 163° (SSE) 1,123 ? -14.0°
Enters shadow 09:26:26 20° 126° (SE) 1,328 ? -14.4°
